Regional Weather Roundup
Issued by NWS Goodland, KS

Home | Current Version | Previous Version | Graphics & Text | Print | Product List | Glossary On
Versions: 1 2 3 4 5 6 7 8 9 10 11 12 13 14 15 16 17 18 19 20 21 22 23 24 25 26 27 28 29 30 31 32 33 34 35 36 37 38 39 40 41 42 43 44 45 46 47 48 49 50
000
ASUS43 KGLD 220308
RWRGLD

GOODLAND FORECAST AREA HOURLY WEATHER ROUNDUP
NATIONAL WEATHER SERVICE GOODLAND KS
900 PM MDT THU AUG 21 2014

...OFFICIAL OBSERVATIONS...

CITY           SKY/WX    TMP DP  RH WIND       PRES   REMARKS
GOODLAND KS    CLEAR     74  53  48 E3        30.00R
HILL CITY KS   PTCLDY    82  67  60 N6        29.89R
IMPERIAL NEB   CLEAR     75  59  57 E5        29.98R
MCCOOK NEB     CLEAR     76  65  68 NE5       29.94R
AKRON CO       CLOUDY    72  54  53 N3        30.07S
BURLINGTON CO  CLEAR     75  48  38 E5        30.03R
LIMON CO       MOCLDY    70  48  45 E6        30.11R
$$

...UNOFFICIAL OBSERVATIONS...

CITY           SKY/WX    TMP DP  RH WIND       PRES   REMARKS
COLBY KS       CLEAR     75  63  64 N7        29.96F
LENORA KS        N/A     79  32  18 CALM        N/A
NORTON KS      CLEAR     79  64  61 N5        29.91
SHARON SPRINGS   N/A     79  57  46 CALM        N/A
WAKEENEY KS      N/A     81  60  49 MISG        N/A
KIT CARSON CO    N/A     76  48  37 MISG        N/A
$$


USA.gov is the U.S. government's official web portal to all federal, state and local government web resources and services.